This is the latest recevied weather packets stored in our database for station/object KC9EGS. If no packets are shown the sender has not sent any weather packets the latest 10 day(s).
| Time | Temp. | Humidity | Pressure | Rain* | Wind** | Luminosity | Snow |
|---|---|---|---|---|---|---|---|
| 1777905319 | 16.67° C | 43% | 987.6 hPa | 0 mm | - | - | - |
| 1777904716 | 16.67° C | 41% | 987.5 hPa | 0 mm | - | - | - |
| 1777904120 | 16.67° C | 40% | 987.5 hPa | 0 mm | - | - | - |
| 1777903815 | 16.67° C | 41% | 987.1 hPa | 0 mm | - | - | - |
| 1777903521 | 16.67° C | 41% | 987.1 hPa | 0 mm | - | - | - |
| 1777902915 | 16.11° C | 43% | 987.3 hPa | 0 mm | - | - | - |
| 1777902321 | 15.56° C | 44% | 987.3 hPa | 0 mm | - | - | - |
| 1777902014 | 15° C | 44% | 987.5 hPa | 0 mm | - | - | - |
| 1777901719 | 15° C | 45% | 987.5 hPa | 0 mm | - | - | - |
| 1777901116 | 14.44° C | 47% | 987.3 hPa | 0 mm | - | - | - |
| 1777900521 | 13.89° C | 46% | 987.3 hPa | 0 mm | - | - | - |
| 1777900214 | 13.89° C | 45% | 987.1 hPa | 0 mm | - | - | - |
| 1777899314 | 13.33° C | 48% | 987.7 hPa | 0 mm | - | - | - |
| 1777898720 | 12.78° C | 49% | 987.7 hPa | 0 mm | - | - | - |
| 1777898414 | 12.78° C | 50% | 988.5 hPa | 0 mm | - | - | - |
| 1777898120 | 12.78° C | 50% | 988.5 hPa | 0 mm | - | - | - |
| 1777897514 | 12.22° C | 50% | 988.6 hPa | 0 mm | - | - | - |
| 1777896615 | 12.22° C | 50% | 988.7 hPa | 0 mm | - | - | - |
| 1777896321 | 11.67° C | 50% | 988.7 hPa | 0 mm | - | - | - |
| 1777895716 | 11.67° C | 50% | 988.9 hPa | 0 mm | - | - | - |
| 1777895120 | 11.11° C | 50% | 988.9 hPa | 0 mm | - | - | - |
| 1777894814 | 11.11° C | 53% | 989.2 hPa | 0 mm | - | - | - |
| 1777894521 | 10.56° C | 52% | 989.2 hPa | 0 mm | - | - | - |
| 1777893914 | 10.56° C | 51% | 989.5 hPa | 0 mm | - | - | - |
| 1777893320 | 10.56° C | 51% | 989.5 hPa | 0 mm | - | - | - |
* Rain latest hour (hover to see other rain measurements)
** Current wind speed in m/s (hover to see current wind gust speed)